Tracking 18980 objects as of 18-Feb-2018
HD Live streaming from Space Station
objects crossing your sky now

FLOCK 2K 02

Track FLOCK 2K 02 now!
10-day predictions
FLOCK 2K 02 is classified as:


NORAD ID: 42853
Int'l Code: 2017-042AE
Perigee: 464.6 km
Apogee: 480.3 km
Inclination: 97.0 °
Period: 93.9 minutes
Semi major axis: 6843 km
RCS: Unknown
Launch date: July 14, 2017
Source: United States (US)
Launch site: TYURATAM MISSILE AND SPACE COMPLEX (TTMTR)
aabbcc
Your satellite tracking list
Your tracking list is empty




NASA's NSSDC Master Catalog

Two Line Element Set (TLE):
1 42853U 17042AE  18048.67849804  .00002033  00000-0  64834-4 0  9990
2 42853  96.9927 310.9592 0011456 179.6276 180.4978 15.33534838 33264
Source of the keplerian elements: AFSPC